Location: ?????????
(44.2517°N, 135.2292°E)
Time: 02:34:02
(UTC+00:00)

Cosmos 2219 - Pass Details

Date: 19 May 2025
Orbit: 831 x 860 km, 71.1° (Epoch: 14 June)

Event Time Altitude Azimuth Distance (km) Brightness Sun altitude
Exits shadow 17:50:03 10° 177° (S) 2,482 5.2 -14.5°
Reaches altitude 10° 17:50:06 10° 177° (S) 2,462 5.2 -14.4°
Maximum altitude 17:55:26 44° 107° (ESE) 1,169 4.1 -13.8°
Drops below altitude 10° 18:00:49 10° 37° (NE) 2,495 7.1 -13.1°
Sets 18:03:23 0° 31° (NNE) 3,439 8.1 -12.8°
